Location: Basse Occidentale du Courleau
(48.3833°N, 4.8333°W)
Time: 09:46:36
(UTC+00:00)

SPOT 5 - Pass Details

Date: 05 July 2020
Orbit: 622 x 815 km, 98.3° (Epoch: 08 August)

Event Time Altitude Azimuth Distance (km) Brightness Sun altitude
Exits shadow 22:53:10 12° 209° (SSW) 2,160 5.0 -16.1°
Maximum altitude 22:57:05 28° 265° (W) 1,363 4.4 -16.3°
Drops below altitude 10° 23:01:15 10° 324° (NW) 2,200 6.6 -16.6°
Sets 23:03:45 0° 336° (NNW) 3,090 7.9 -16.7°
